User: anonymous   Login
Location: ?????????
(38.5999°N, 22.7695°E)
Time: 20:05:22
(UTC+00:00)
Language:

Cosmos 1825 - Orbit

View from above orbital plane
View from above orbital plane
View from above satellite
View from above satellite

Ground track
Ground track

The orbit data is extracted from the following two-line orbital elements,

1 17566U 87024A   24207.11393682  .00028014  00000-0  62520-3 0  9997
2 17566  82.4933 219.6283 0004960 118.8351 241.3395 15.43394584 48525
Epoch (UTC): 25 July 2024 02:44:04
Eccentricity: 0.0004960
inclination: 82.4933°
perigee height: 433 km
apogee height: 439 km
right ascension of ascending node: 219.6283°
argument of perigee: 118.8351°
revolutions per day: 15.43394584
mean anomaly at epoch: 241.3395°
orbit number at epoch: 4852

The dashed part of the orbit path shows where the satellite is in the earth's shadow,  

DLR